When you browse on this site, cookies collect data to enhance your experience and personalize the content and advertising you see.
Visit our Privacy Policy to learn more. By continuing to use the site, you agree to this use of cookies and data.
  • In Hungary
  • List of Countries
  • For 7 days
  • Water Temperature
  • Satellite Maps
  • Weather Map
  • News
  • Weather Widgets
  • user-avatar
    Login

    Hourly Weather Naperville

    Today, 19 July, Friday

    Time Temperature Precipitation Wind Pressure Humidity
    00:00 +28°C° 0.9 mm 4 mps 737 mmHg 90%
    01:00 +27°C° 2.6 mm 3 mps 737 mmHg 91%
    02:00 +27°C° 2.6 mm 3 mps 737 mmHg 91%
    03:00 +27°C° 2.6 mm 2 mps 737 mmHg 92%
    04:00 +27°C° 0.1 mm 3 mps 737 mmHg 91%
    05:00 +27°C° 0.1 mm 3 mps 738 mmHg 91%
    06:00 +27°C° 0.1 mm 4 mps 738 mmHg 90%
    07:00 +28°C° 0 mm 4 mps 738 mmHg 87%
    08:00 +29°C° 0 mm 5 mps 738 mmHg 84%
    09:00 +30°C° 0 mm 5 mps 738 mmHg 81%
    10:00 +32°C° 0 mm 5 mps 738 mmHg 80%
    11:00 +32°C° 0 mm 5 mps 738 mmHg 78%
    12:00 +33°C° 0 mm 5 mps 739 mmHg 76%
    13:00 +33°C° 0 mm 5 mps 738 mmHg 77%
    14:00 +33°C° 0 mm 5 mps 738 mmHg 78%
    15:00 +33°C° 0 mm 5 mps 738 mmHg 80%
    16:00 +33°C° 0 mm 5 mps 738 mmHg 81%
    17:00 +33°C° 0 mm 5 mps 738 mmHg 83%
    18:00 +32°C° 0 mm 5 mps 738 mmHg 84%
    19:00 +32°C° 0 mm 5 mps 738 mmHg 86%
    20:00 +30°C° 0 mm 5 mps 738 mmHg 88%
    21:00 +30°C° 0 mm 4 mps 738 mmHg 90%
    22:00 +29°C° 0 mm 4 mps 738 mmHg 90%
    23:00 +29°C° 0 mm 4 mps 738 mmHg 90%

    Tomorrow, 20 July, Saturday

    Time Temperature Precipitation Wind Pressure Humidity
    00:00 +28°C° 0 mm 4 mps 738 mmHg 90%
    01:00 +28°C° 0 mm 3 mps 738 mmHg 91%
    02:00 +28°C° 0 mm 3 mps 738 mmHg 92%
    03:00 +27°C° 0 mm 3 mps 738 mmHg 92%
    04:00 +27°C° 0 mm 3 mps 738 mmHg 92%
    05:00 +28°C° 0 mm 4 mps 738 mmHg 91%
    06:00 +28°C° 0 mm 4 mps 738 mmHg 91%
    07:00 +29°C° 0 mm 5 mps 738 mmHg 86%
    08:00 +30°C° 0 mm 5 mps 739 mmHg 82%
    09:00 +32°C° 0 mm 5 mps 739 mmHg 77%
    10:00 +33°C° 0 mm 5 mps 739 mmHg 74%
    11:00 +34°C° 0 mm 5 mps 739 mmHg 71%
    12:00 +35°C° 0 mm 5 mps 739 mmHg 68%
    13:00 +35°C° 0.1 mm 5 mps 739 mmHg 68%
    14:00 +35°C° 0.1 mm 5 mps 739 mmHg 67%
    15:00 +35°C° 0.1 mm 5 mps 738 mmHg 67%
    16:00 +35°C° 0 mm 5 mps 738 mmHg 71%
    17:00 +34°C° 0 mm 4 mps 738 mmHg 74%
    18:00 +33°C° 0 mm 4 mps 738 mmHg 77%
    19:00 +32°C° 0.1 mm 4 mps 739 mmHg 80%
    20:00 +30°C° 0.1 mm 4 mps 739 mmHg 83%
    21:00 +29°C° 0.1 mm 3 mps 739 mmHg 86%
    22:00 +29°C° 1.3 mm 3 mps 739 mmHg 87%
    23:00 +28°C° 1.3 mm 3 mps 739 mmHg 88%

    Day after tomorrow, 21 July, Sunday

    Time Temperature Precipitation Wind Pressure Humidity
    00:00 +28°C° 1.3 mm 2 mps 739 mmHg 88%
    01:00 +27°C° 1.6 mm 2 mps 738 mmHg 89%
    02:00 +26°C° 1.6 mm 3 mps 738 mmHg 89%
    03:00 +25°C° 1.6 mm 3 mps 738 mmHg 89%
    04:00 +25°C° 2.1 mm 3 mps 739 mmHg 88%
    05:00 +25°C° 2.1 mm 3 mps 739 mmHg 86%
    06:00 +23°C° 2.1 mm 4 mps 739 mmHg 84%
    07:00 +25°C° 1.7 mm 4 mps 740 mmHg 80%
    08:00 +26°C° 1.7 mm 3 mps 740 mmHg 76%
    09:00 +27°C° 1.7 mm 3 mps 741 mmHg 72%
    10:00 +28°C° 0.5 mm 4 mps 741 mmHg 68%
    11:00 +28°C° 0.5 mm 5 mps 741 mmHg 64%
    12:00 +29°C° 0.5 mm 6 mps 741 mmHg 60%
    13:00 +29°C° 0 mm 5 mps 741 mmHg 58%
    14:00 +29°C° 0 mm 5 mps 741 mmHg 56%
    15:00 +30°C° 0 mm 5 mps 741 mmHg 54%
    16:00 +28°C° 0 mm 4 mps 741 mmHg 57%
    17:00 +27°C° 0 mm 4 mps 741 mmHg 60%
    18:00 +26°C° 0 mm 4 mps 741 mmHg 63%
    19:00 +25°C° 0 mm 4 mps 741 mmHg 65%
    20:00 +24°C° 0 mm 3 mps 742 mmHg 67%
    21:00 +21°C° 0 mm 3 mps 742 mmHg 68%
    22:00 +21°C° 0 mm 3 mps 742 mmHg 68%
    23:00 +21°C° 0 mm 3 mps 742 mmHg 67%

    22 July, Monday

    Time Temperature Precipitation Wind Pressure Humidity
    00:00 +20°C° 0 mm 3 mps 742 mmHg 66%
    01:00 +20°C° 0 mm 3 mps 742 mmHg 66%
    02:00 +20°C° 0 mm 3 mps 742 mmHg 67%
    03:00 +20°C° 0 mm 3 mps 742 mmHg 67%
    04:00 +20°C° 0 mm 4 mps 742 mmHg 67%
    05:00 +20°C° 0 mm 4 mps 742 mmHg 66%
    06:00 +20°C° 0 mm 4 mps 743 mmHg 66%
    07:00 +21°C° 0 mm 4 mps 743 mmHg 63%
    08:00 +21°C° 0 mm 4 mps 744 mmHg 61%
    09:00 +22°C° 0 mm 4 mps 744 mmHg 58%
    10:00 +23°C° 0 mm 4 mps 744 mmHg 54%
    11:00 +25°C° 0 mm 4 mps 744 mmHg 51%
    12:00 +26°C° 0 mm 4 mps 744 mmHg 47%
    13:00 +26°C° 0 mm 5 mps 744 mmHg 47%
    14:00 +26°C° 0 mm 5 mps 744 mmHg 48%
    15:00 +26°C° 0 mm 5 mps 744 mmHg 48%
    16:00 +26°C° 0 mm 5 mps 743 mmHg 54%
    17:00 +25°C° 0 mm 4 mps 743 mmHg 59%
    18:00 +23°C° 0 mm 4 mps 743 mmHg 64%
    19:00 +22°C° 0 mm 3 mps 744 mmHg 66%
    20:00 +21°C° 0 mm 3 mps 744 mmHg 69%
    21:00 +20°C° 0 mm 2 mps 744 mmHg 71%
    22:00 +20°C° 0 mm 2 mps 744 mmHg 73%
    23:00 +19°C° 0 mm 2 mps 744 mmHg 75%

    23 July, Tuesday

    Time Temperature Precipitation Wind Pressure Humidity
    00:00 +19°C° 0 mm 2 mps 744 mmHg 76%
    01:00 +18°C° 0 mm 2 mps 744 mmHg 77%
    02:00 +18°C° 0 mm 2 mps 744 mmHg 79%
    03:00 +18°C° 0 mm 3 mps 744 mmHg 80%
    04:00 +18°C° 0 mm 2 mps 744 mmHg 80%
    05:00 +18°C° 0 mm 2 mps 744 mmHg 79%
    06:00 +18°C° 0 mm 2 mps 744 mmHg 79%
    07:00 +20°C° 0 mm 2 mps 745 mmHg 73%
    08:00 +23°C° 0 mm 2 mps 745 mmHg 67%
    09:00 +25°C° 0 mm 2 mps 745 mmHg 62%
    10:00 +26°C° 0 mm 3 mps 745 mmHg 58%
    11:00 +27°C° 0 mm 3 mps 745 mmHg 54%
    12:00 +28°C° 0 mm 4 mps 744 mmHg 51%
    13:00 +28°C° 0 mm 4 mps 744 mmHg 52%
    14:00 +28°C° 0 mm 4 mps 744 mmHg 54%
    15:00 +27°C° 0 mm 4 mps 744 mmHg 56%
    16:00 +27°C° 0.1 mm 4 mps 743 mmHg 60%
    17:00 +26°C° 0.1 mm 3 mps 743 mmHg 64%
    18:00 +25°C° 0.1 mm 3 mps 743 mmHg 68%
    19:00 +24°C° 0 mm 3 mps 743 mmHg 70%
    20:00 +22°C° 0 mm 3 mps 744 mmHg 73%
    21:00 +21°C° 0 mm 2 mps 744 mmHg 75%
    22:00 +20°C° 0 mm 2 mps 744 mmHg 77%
    23:00 +20°C° 0 mm 2 mps 743 mmHg 79%

    24 July, Wednesday

    Time Temperature Precipitation Wind Pressure Humidity
    00:00 +19°C° 0 mm 2 mps 743 mmHg 81%
    01:00 +19°C° 0 mm 2 mps 743 mmHg 81%
    02:00 +18°C° 0 mm 2 mps 743 mmHg 82%
    03:00 +18°C° 0 mm 2 mps 743 mmHg 83%
    04:00 +18°C° 0 mm 2 mps 744 mmHg 83%
    05:00 +18°C° 0 mm 2 mps 744 mmHg 82%
    06:00 +18°C° 0 mm 2 mps 744 mmHg 82%
    07:00 +20°C° 0 mm 2 mps 744 mmHg 74%
    08:00 +23°C° 0 mm 2 mps 745 mmHg 66%
    09:00 +25°C° 0 mm 2 mps 745 mmHg 59%
    10:00 +26°C° 0 mm 2 mps 745 mmHg 54%
    11:00 +27°C° 0 mm 2 mps 745 mmHg 50%
    12:00 +28°C° 0 mm 2 mps 745 mmHg 46%
    13:00 +28°C° 0.1 mm 3 mps 744 mmHg 50%
    14:00 +27°C° 0.1 mm 3 mps 744 mmHg 55%
    15:00 +27°C° 0.1 mm 4 mps 744 mmHg 59%
    16:00 +26°C° 0.2 mm 3 mps 744 mmHg 63%
    17:00 +26°C° 0.2 mm 3 mps 744 mmHg 67%
    18:00 +25°C° 0.2 mm 3 mps 744 mmHg 71%
    19:00 +24°C° 0.1 mm 2 mps 744 mmHg 74%
    20:00 +23°C° 0.1 mm 2 mps 744 mmHg 77%
    21:00 +21°C° 0.1 mm 2 mps 744 mmHg 80%
    22:00 +21°C° 0 mm 2 mps 744 mmHg 80%
    23:00 +21°C° 0 mm 1 mps 744 mmHg 81%
    Show more